Regional Weather Roundup
Issued by NWS Boston, MA

Home | Current Version | Previous Version | Text Only | Print | Product List | Glossary On
Versions: 1 2 3 4 5 6 7 8 9 10 11 12 13 14 15 16 17 18 19 20 21 22 23 24 25 26 27 28 29 30 31 32 33 34 35 36 37 38 39 40 41 42 43 44 45 46 47 48 49 50
000
ASUS41 KBOX 260110
RWRBOX

REGIONAL WEATHER ROUNDUP
NATIONAL WEATHER SERVICE TAUNTON MA
900 PM EDT FRI JUL 25 2014

NOTE:  "FAIR" INDICATES FEW OR NO CLOUDS BELOW 12,000 FEET WITH NO
SIGNIFICANT WEATHER AND/OR OBSTRUCTIONS TO VISIBILITY.  THE FOLLOWING
OBSERVATION LOCATIONS DO NOT REPORT PRESENT WEATHER...PROVINCETOWN...
SMITHFIELD...BLOCK ISLAND...KEENE...AND OXFORD.

MAZALL-260200-
EASTERN MASSACHUSETTS

CITY           SKY/WX    TMP DP  RH WIND       PRES   REMARKS
BOSTON         CLEAR     76  57  51 SW8       29.95R
BEVERLY        CLEAR     69  59  70 CALM      29.94R
LAWRENCE       CLEAR     71  60  68 S5        29.96R
BEDFORD        CLEAR     70  60  70 W3        29.94R
BLUE HILL        N/A     71  58  63 SW8       29.97R
NORWOOD        CLEAR     67  59  75 CALM      29.96R
MARSHFIELD     CLEAR     70  61  73 SW6       29.98R
PLYMOUTH       CLEAR     68  56  65 S5        29.98R
TAUNTON        CLEAR     68  58  70 S3        29.97R
NEW BEDFORD    CLEAR     66  59  78 SW5       29.97R
$$

MAZALL-260200-
CAPE COD AND THE ISLANDS

CITY           SKY/WX    TMP DP  RH WIND       PRES   REMARKS
FALMOUTH       PTCLDY    66  61  82 SW7       29.99R
HYANNIS        CLEAR     70  60  70 SW14      29.98R
CHATHAM        CLEAR     69  59  70 SW8       29.99R
PROVINCETOWN   CLEAR     70  63  78 SW9       29.98R
NANTUCKET      CLEAR     64  61  90 SW7       30.00R
MARTHAS VNYRD  CLEAR     65  61  87 SW6       29.99R
$$

MAZALL-260200-
CENTRAL AND WESTERN MASSACHUSETTS

CITY           SKY/WX    TMP DP  RH WIND       PRES   REMARKS
WORCESTER      CLEAR     68  57  68 W7        30.00R
FITCHBURG      CLEAR     71  58  63 CALM      29.97R
ORANGE         CLEAR     65  62  90 CALM      29.98R
SPRINGFIELD    CLEAR     65  62  90 S1        29.97R
WESTFIELD      CLEAR     66  62  87 CALM      29.97R
NORTH ADAMS    CLEAR     63  59  87 CALM      29.99R
PITTSFIELD     CLEAR     65  60  84 W6        30.00R
$$

RIZALL-260200-
RHODE ISLAND

CITY           SKY/WX    TMP DP  RH WIND       PRES   REMARKS
PROVIDENCE     CLEAR     70  60  70 SW7       29.98R
NEWPORT        CLEAR     69  60  73 S8        29.99R
BLOCK ISLAND   CLEAR     70  61  73 SW10      30.00R
SMITHFIELD     CLEAR     63  57  82 CALM      30.00R
WESTERLY       CLEAR     71  63  75 SW5       30.00R
$$

CTZALL-260200-
CONNECTICUT

CITY           SKY/WX    TMP DP  RH WIND       PRES   REMARKS
BRADLEY INTL   CLEAR     72  60  66 W3        29.96R
HARTFORD       CLEAR     73  60  63 S7        29.97R
BRIDGEPORT     CLEAR     75  63  66 S10       29.99R
DANBURY        CLEAR     65  58  78 SW3       30.02R
GROTON         CLEAR     69  63  81 SW8       29.99R
NEW HAVEN      CLEAR     76  59  55 SW5       29.99R
CHESTER        FAIR      70  57  64 SW5       30.01R
MERIDEN        CLEAR     69  60  73 CALM      29.99R
WILLIMANTIC    CLEAR     72  60  66 S3        29.99R
$$

MEZ002-015-021-024-NHZ003-005-008-011-012-014-VTZ005-008-260200-
NORTHERN NEW ENGLAND

CITY           SKY/WX    TMP DP  RH WIND       PRES   REMARKS
PORTLAND ME    CLEAR     73  59  61 SW5       29.92R
BANGOR ME      CLEAR     69  59  70 SW5       29.88R
CONCORD NH     CLEAR     69  60  73 SW3       29.94S
MANCHESTER NH  CLEAR     74  60  61 SW3       29.93R
NASHUA NH      CLEAR     71  62  73 CALM      29.95S
PORTSMOUTH NH  CLEAR     71  60  68 SW3       29.93R
JAFFREY NH     CLEAR     64  59  83 CALM      30.00R
KEENE NH       CLEAR     64  54  68 CALM      29.98R
BURLINGTON VT  PTCLDY    73  55  53 W5        29.91R
MT. WASHINGTON FOG       46  46 100 W38         N/A  VSB 0
$$

NYZ052-076-260200-
EASTERN NEW YORK

CITY           SKY/WX    TMP DP  RH WIND       PRES   REMARKS
ALBANY         PTCLDY    72  59  63 CALM      29.97R
NEW YORK CITY  PTCLDY    77  56  48 SW10      30.00R
$$

ANZALL-260200-
MARINE OBSERVATIONS

STATION/POSITION TIME  TEMP    WIND        PRES    VSBY  WAVE
                       AIR SEA DIR/SP/G                  HT/PER
                 (UTC) (F)     (DEG/KT/KT) (MB)    (MI)  (FT/S)
BOSTON BUOY      NOT AVBL
BUZZARDS BAY     NOT AVBL
NANTUCKET SOUND  NOT AVBL
MASS BAY-STELLWA NOT AVBL
ISLE OF SHOALS   NOT AVBL
S OF BLOCK IS    NOT AVBL
$$

......................KEY.........................
  SKY/WX - SKY CONDITION/PRESENT WEATHER
  TMP    - TEMPERATURE IN FAHRENHEIT
  DWPT   - DEWPOINT IN FAHRENHEIT
  RH     - RELATIVE HUMIDITY IN PERCENT
  WIND   - DIRECTION AND SPEED IN MPH
  PRES   - MEAN SEA LEVEL PRESSURE IN INCHES OF HG
  WCI    - WIND CHILL INDEX
  VSB    - VISIBILITY IN MILES
  HX     - HEAT INDEX
  TC     - TEMPERATURE IN CELSIUS
  VRB    - VARIABLE WIND DIRECTION
  N/A    - NOT AVAILABLE


USA.gov is the U.S. government's official web portal to all federal, state and local government web resources and services.